Location: Newark
(45.8667°N, 9.7333°E)
Time: 01:09:49
(UTC+00:00)

A-11 Canister half - Pass Details

Date: 20 January 2020
Orbit: 1517 x 1683 km, 47.2° (Epoch: 19 February)

Event Time Altitude Azimuth Distance (km) Brightness Sun altitude
Rises 08:56:42 0° 283° (WNW) 4,686 11.1 15.2°
Reaches altitude 10° 09:03:20 10° 250° (WSW) 3,730 10.9 15.8°
Maximum altitude 09:05:10 11° 238° (WSW) 3,684 11.0 16.0°
Drops below altitude 10° 09:07:01 10° 226° (SW) 3,749 11.2 16.2°
Sets 09:13:51 0° 193° (SSW) 4,775 12.3 16.9°
